Flag for Italy Weather past 2 weeks in Palermo, Italy

Now
66 °F

Sunny.


Feels Like: 66 °F
Forecast: 62 / 72 °F
Wind: 10 mph from Northeast

Location: Palermo / Punta Raisi

Current Time: May 30, 2015 at 7:11:46 AM

Latest Report: May 30, 2015 at 6:50 AM


Visibility: 10 mi

Pressure: 30.01 "Hg

Humidity: 56%

Dew point: 50 °F

Location of PalermoLocation

Historic Weather in Palermo — Graph

°F

Palermo temperature yesterday

Maximum temperature yesterday: 70 °F (at 11:50 AM)
Minimum temperature yesterday: 61 °F (at 5:20 AM)
Average temperature yesterday: 67 °F

Past Weeks' High & Low Weather Summary

 TemperatureHumidityPressure
High93 °F (May 15, 12:50 PM)100% (May 17, 9:20 AM)30.09 "Hg (May 17, 9:20 AM)
Low57 °F (May 17, 5:20 AM)14% (May 15, 1:50 PM)29.77 "Hg (May 15, 2:20 PM)
Average66 °F75%29.94 "Hg
* Reported May 15 5:20 AM — May 30 5:20 AM, Palermo, Weather by CustomWeather, © 2015

Note: Actual official high and low records may vary slightly from our data, if they occured in-between our weather recording intervals... More about our weather records

Advertising

Palermo weather history for previous 24 hours

 ConditionsComfort  
Time TempWeatherWind HumidityBarometerVisibility
5:20 AM
Sat, May 30
61 °FClear.1 mph72%30.01 "Hg10 mi
4:50 AM59 °FPassing clouds.3 mph77%30.01 "HgN/A
4:20 AM63 °FClear.3 mph68%30.01 "Hg10 mi
3:50 AM61 °FClear.7 mph72%30.01 "Hg10 mi
3:20 AM61 °FClear.6 mph63%30.01 "Hg10 mi
2:50 AM64 °FClear.3 mph60%30.01 "Hg10 mi
2:20 AM63 °FClear.7 mph64%30.01 "Hg10 mi
1:50 AM64 °FPassing clouds.5 mph56%30.04 "HgN/A
1:20 AM63 °FClear.6 mph59%30.04 "Hg10 mi
12:50 AM63 °FClear.8 mph64%30.04 "Hg10 mi
12:20 AM64 °FClear.8 mph68%30.04 "Hg10 mi
11:50 PM
Fri, May 29
66 °FPassing clouds.7 mph68%30.04 "HgN/A
11:20 PM68 °FClear.2 mph53%30.01 "Hg10 mi
10:50 PM68 °FPassing clouds.8 mph53%30.01 "HgN/A
10:20 PM68 °FClear.12 mph56%30.01 "Hg10 mi
9:50 PM68 °FClear.10 mph60%30.01 "Hg10 mi
8:50 PM68 °FSunny.14 mph78%30.01 "Hg10 mi
8:20 PM68 °FSunny.15 mph78%30.01 "Hg10 mi
7:50 PM70 °FSunny.14 mph73%30.01 "Hg10 mi
7:20 PM70 °FSunny.14 mph69%30.01 "Hg10 mi
6:50 PM70 °FSunny.13 mph73%30.01 "Hg10 mi
6:20 PM70 °FSunny.9 mph64%30.01 "Hg10 mi
5:20 PM70 °FSunny.12 mph69%30.04 "Hg10 mi
4:50 PM70 °FSunny.10 mph69%30.04 "Hg10 mi
4:20 PM70 °FSunny.9 mph73%30.04 "Hg10 mi
3:50 PM70 °FSunny.9 mph69%30.04 "Hg10 mi
3:20 PM70 °FSunny.9 mph69%30.07 "Hg10 mi
2:50 PM70 °FSunny.8 mph64%30.07 "Hg10 mi
2:20 PM70 °FSunny.9 mph69%30.07 "Hg10 mi
1:50 PM70 °FSunny.8 mph69%30.07 "Hg10 mi
1:20 PM70 °FSunny.5 mph60%30.07 "Hg10 mi
12:50 PM70 °FPassing clouds.3 mph64%30.09 "HgN/A
12:20 PM70 °FSunny.3 mph64%30.09 "Hg10 mi
11:50 AM70 °FSunny.5 mph64%30.09 "Hg10 mi
11:20 AM68 °FSunny.5 mph69%30.09 "Hg10 mi
10:50 AM68 °FSunny.6 mph64%30.09 "Hg10 mi
10:20 AM68 °FSunny.7 mph69%30.09 "Hg10 mi
9:50 AM68 °FSunny.6 mph73%30.09 "Hg10 mi
9:20 AM66 °FPassing clouds.5 mph78%30.09 "HgN/A
8:50 AM66 °FPassing clouds.6 mph78%30.07 "HgN/A
8:20 AM66 °FPassing clouds.3 mph73%30.07 "HgN/A
7:50 AM66 °FSunny.6 mph73%30.07 "Hg10 mi
7:20 AM64 °FPassing clouds.6 mph73%30.07 "HgN/A
Weather by CustomWeather, © 2015

See weather overviewHow to use our weather pages